Estación municipal de Cànoves i Samalús (Vallès Oriental, P.N.del Montseny)

Consulta los datos en tiempo real de la estación municipal de Cànoves i Samalús





Hora UTC 18:45
Temperatura 24.0 ºC
Humedad 78.5 %
Presión 1018.9 hPa
Pluja 0.0 mm
Velocidad viento 5.8 km/h
Dirección viento SSE
Radiación solar 0.1 W/m²

Webcam

Datos diarios 2026-08-31



Hora UTC (invierno +1h; verano +2h)
Temperatura (ºC) Humedad (%) Presión (hPa) Velocidad viento (km/h) Precipitación (mm) Radiación solar (W/m²)
Hora UTC Aire Humedad Presión Vel. Dir. Vel. Max Dir. Intent. máx 5 min. Rad. Sol.
00:05 18.7 62.1 1016.9 1.9 NNW 1.9 NNW 0.0 0.1
00:10 18.7 61.7 1016.8 2.1 NW 3.9 NNW 0.0 0.1
00:15 18.8 62.0 1016.9 1.0 N 3.5 NNW 0.0 0.1
00:20 18.6 62.6 1016.8 0.0 NNE 0.0 NNW 0.0 0.1
00:25 18.3 63.6 1016.8 0.0 NNE 0.0 NW 0.0 0.1
00:30 18.1 64.5 1016.8 0.8 SW 2.1 SSW 0.0 0.1
00:35 18.1 66.0 1016.8 2.4 WNW 3.9 NW 0.0 0.1
00:40 18.3 65.7 1016.8 1.3 NW 3.2 NW 0.0 0.1
00:45 18.3 65.6 1016.8 2.2 WNW 4.2 WNW 0.0 0.1
00:50 18.4 65.7 1016.7 0.8 WNW 3.2 WNW 0.0 0.1
00:55 18.5 65.8 1016.7 0.3 WNW 2.1 WNW 0.0 0.1
01:00 18.4 66.0 1016.8 5.1 S 8.8 SSE 0.0 0.1
01:05 18.4 66.1 1016.9 2.0 S 4.2 SSW 0.0 0.1
01:10 18.3 66.7 1017.1 1.3 WSW 3.5 SW 0.0 0.1
01:15 18.5 66.5 1017.1 2.2 NW 4.2 N 0.0 0.1
01:20 18.7 65.8 1017.0 2.6 NNW 3.9 NNW 0.0 0.1
01:25 18.7 66.1 1017.0 3.2 NNW 5.3 NNW 0.0 0.1
01:30 18.6 66.4 1017.0 3.7 NNW 5.3 NNW 0.0 0.1
01:35 18.5 66.8 1017.0 4.0 NNW 6.4 NNW 0.0 0.1
01:40 18.4 66.9 1017.1 3.2 NW 5.6 NNW 0.0 0.1
01:45 18.3 67.4 1017.1 1.4 NW 3.5 NNW 0.0 0.1
01:50 18.0 67.8 1017.1 0.0 NNE 0.0 ENE 0.0 0.1
01:55 17.7 69.3 1017.1 0.0 NNE 0.0 ENE 0.0 0.1
02:00 17.6 69.9 1017.1 2.8 NNW 4.6 NNW 0.0 0.1
02:05 17.7 70.0 1017.1 2.6 NNW 4.9 NNW 0.0 0.1
02:10 17.7 70.3 1017.1 3.9 NNW 4.9 NNW 0.0 0.1
02:15 17.6 70.4 1017.1 3.3 NNW 4.2 NW 0.0 0.1
02:20 17.6 70.4 1017.1 3.0 NNW 3.5 NNW 0.0 0.1
02:25 17.7 70.9 1017.2 4.3 NNW 6.4 NNW 0.0 0.1
02:30 17.6 70.7 1017.2 4.5 NNW 6.7 NNW 0.0 0.1
02:35 17.5 71.1 1017.2 3.4 NNW 4.9 N 0.0 0.1
02:40 17.6 70.9 1017.3 3.9 N 6.0 NNW 0.0 0.1
02:45 17.8 70.2 1017.3 4.0 N 5.6 NNW 0.0 0.1
02:50 17.7 70.0 1017.3 4.6 NNW 6.0 NNW 0.0 0.1
02:55 17.7 70.4 1017.3 5.2 NNW 7.1 NNW 0.0 0.1
03:00 17.8 69.8 1017.3 3.6 NNW 4.9 NNW 0.0 0.1
03:05 17.8 70.1 1017.3 4.3 NNW 6.0 NNW 0.0 0.1
03:10 17.9 69.2 1017.3 4.3 NNW 7.1 NNW 0.0 0.1
03:15 17.8 69.2 1017.3 4.8 NNW 7.1 NW 0.0 0.1
03:20 17.7 69.5 1017.2 4.6 NNW 7.1 NNW 0.0 0.1
03:25 17.7 69.6 1017.2 4.3 NNW 7.4 N 0.0 0.1
03:30 17.7 69.6 1017.2 3.5 NNW 4.9 NNW 0.0 0.1
03:35 17.8 69.5 1017.2 3.6 NNW 4.9 NNW 0.0 0.1
03:40 17.8 69.5 1017.2 3.4 NNW 5.3 NNW 0.0 0.1
03:45 17.8 69.5 1017.2 3.4 NNW 4.6 NNW 0.0 0.1
03:50 17.9 69.5 1017.2 4.1 N 8.1 NNW 0.0 0.1
03:55 18.2 68.3 1017.2 3.7 NNW 6.4 NNW 0.0 0.1
04:00 18.2 68.1 1017.2 3.8 NNW 6.4 NNW 0.0 0.1
04:05 18.1 68.6 1017.2 5.1 NNW 9.5 NNW 0.0 0.1
04:10 18.0 69.0 1017.2 3.6 NNW 6.0 NNW 0.0 0.1
04:15 17.9 68.9 1017.2 3.6 NW 4.9 NNW 0.0 0.1
04:20 17.9 69.1 1017.2 4.3 NW 6.7 NNW 0.0 0.1
04:25 18.0 69.1 1017.3 4.2 NW 5.6 NW 0.0 0.1
04:30 18.1 69.2 1017.2 3.8 NNW 4.9 NNW 0.0 0.1
04:35 18.1 69.6 1017.2 3.6 N 5.3 N 0.0 0.1
04:40 18.2 69.4 1017.3 4.2 NNW 8.1 NNW 0.0 0.1
04:45 18.1 69.5 1017.3 4.4 NNW 6.4 N 0.0 0.1
04:50 18.0 69.5 1017.3 3.9 NW 5.3 NW 0.0 0.2
04:55 18.0 69.5 1017.3 3.9 NNW 5.3 NW 0.0 0.4
05:00 18.0 69.9 1017.3 6.2 NNW 9.2 NNW 0.0 0.8
05:05 18.0 70.3 1017.4 2.6 NNW 5.6 NNW 0.0 1.6
05:10 18.0 70.7 1017.4 1.9 N 4.6 NNE 0.0 2.7
05:15 17.9 70.8 1017.5 0.1 N 1.4 NNE 0.0 4.4
05:20 17.7 71.0 1017.5 0.0 NNE 0.0 NNW 0.0 6.4
05:25 17.5 72.2 1017.6 0.8 NW 2.5 NW 0.0 8.7
05:30 17.4 72.9 1017.6 2.2 NW 3.2 NNW 0.0 10.8
05:35 17.4 73.5 1017.7 2.7 NW 4.6 NNW 0.0 13.3
05:40 17.5 73.9 1017.7 2.2 NW 3.9 NW 0.0 15.7
05:45 17.5 74.0 1017.7 2.6 NW 3.9 NW 0.0 18.3
05:50 17.7 74.4 1017.7 3.0 NNW 4.9 NNE 0.0 23.1
05:55 17.8 74.3 1017.8 3.8 N 6.7 NNW 0.0 42.0
06:00 18.2 73.6 1017.9 5.5 N 8.5 N 0.0 27.8
06:05 18.8 71.6 1017.9 4.3 N 7.4 N 0.0 26.4
06:10 19.1 70.6 1018.0 4.4 NNW 6.0 NNW 0.0 27.5
06:15 19.4 69.8 1018.0 3.3 N 4.9 N 0.0 28.7
06:20 19.5 69.9 1018.1 3.8 N 6.7 N 0.0 29.6
06:25 19.8 69.1 1018.2 4.0 NNW 6.7 NNW 0.0 31.6
06:30 20.3 67.6 1018.2 3.9 N 5.6 NNW 0.0 31.7
06:35 20.8 65.8 1018.2 3.8 N 6.4 NNE 0.0 32.3
06:40 21.2 65.0 1018.3 2.8 N 5.3 N 0.0 32.9
06:45 21.3 65.3 1018.4 1.2 N 3.5 NNE 0.0 33.8
06:50 21.4 65.7 1018.5 0.7 NE 2.5 NE 0.0 36.9
06:55 21.5 65.2 1018.5 0.0 NNE 0.0 NE 0.0 35.5
07:00 21.7 65.6 1018.6 0.4 ESE 2.5 ESE 0.0 36.3
07:05 21.9 63.6 1018.6 2.5 ESE 3.9 E 0.0 37.3
07:10 22.5 61.2 1018.6 2.4 ESE 4.2 E 0.0 38.2
07:15 23.2 59.7 1018.6 3.3 SSE 6.4 SSE 0.0 65.2
07:20 23.7 58.6 1018.7 3.9 SSE 6.4 SE 0.0 72.5
07:25 23.9 58.0 1018.7 3.2 SSE 5.6 SSW 0.0 134.7
07:30 24.1 56.7 1018.7 3.7 SE 5.6 SE 0.0 44.1
07:35 24.4 54.7 1018.8 4.6 ESE 6.7 ESE 0.0 42.1
07:40 24.5 53.3 1018.8 4.9 SE 7.4 SE 0.0 48.2
07:45 24.6 53.1 1018.8 3.7 ESE 6.7 ESE 0.0 93.9
07:50 24.7 53.3 1018.9 4.6 SSE 8.1 SE 0.0 181.8
07:55 25.0 53.3 1018.9 4.8 ESE 9.2 ESE 0.0 363.6
08:00 25.0 52.9 1019.0 6.7 ESE 9.9 ESE 0.0 432.9
08:05 25.0 54.1 1019.0 4.7 ESE 8.8 SE 0.0 447.6
08:10 25.2 54.3 1019.1 4.5 SSE 9.9 S 0.0 461.7
08:15 25.5 53.7 1019.1 5.5 SE 9.5 SE 0.0 474.6
08:20 26.1 52.4 1019.2 4.2 SE 8.5 SE 0.0 487.2
08:25 26.1 53.3 1019.3 6.4 SSW 11.3 SW 0.0 501.0
08:30 26.1 55.0 1019.3 5.9 S 10.6 SSE 0.0 512.8
08:35 26.2 56.8 1019.3 6.2 S 10.9 S 0.0 508.4
08:40 26.2 62.9 1019.4 8.6 SSW 15.9 SSW 0.0 506.2
08:45 26.2 64.1 1019.5 5.8 SSW 12.0 SSE 0.0 547.6
08:50 26.3 63.3 1019.5 6.7 SE 15.2 S 0.0 552.6
08:55 26.5 63.9 1019.5 6.2 SSW 12.7 SW 0.0 566.6
09:00 26.4 63.6 1019.5 3.2 SSE 11.6 WSW 0.0 583.1
09:05 26.5 62.3 1019.6 4.4 S 12.4 SSW 0.0 497.6
09:10 26.6 61.3 1019.6 5.1 WSW 10.6 W 0.0 533.2
09:15 26.7 61.0 1019.6 3.4 SW 8.5 SSW 0.0 642.1
09:20 27.1 60.7 1019.6 7.2 WSW 15.5 WSW 0.0 653.7
09:25 27.3 60.5 1019.6 6.3 SSE 10.2 SE 0.0 557.9
09:30 27.3 60.7 1019.6 7.4 S 17.6 SSE 0.0 516.6
09:35 26.9 60.3 1019.5 4.6 WSW 10.6 WSW 0.0 164.8
09:40 26.7 61.5 1019.6 5.5 SSE 13.4 SSE 0.0 684.4
09:45 27.0 60.6 1019.6 3.2 SE 10.2 SE 0.0 725.6
09:50 27.4 59.6 1019.6 2.7 WSW 7.8 SW 0.0 731.1
09:55 27.9 58.5 1019.6 6.1 SSW 13.4 SW 0.0 727.8
10:00 28.3 56.5 1019.6 7.2 S 14.8 S 0.0 664.7
10:05 28.0 56.7 1019.5 8.0 S 17.3 S 0.0 737.9
10:10 27.9 58.3 1019.5 7.9 S 14.5 S 0.0 733.3
10:15 27.9 58.2 1019.4 4.7 ESE 16.6 ENE 0.0 727.1
10:20 28.3 57.4 1019.4 6.0 S 15.2 ESE 0.0 724.2
10:25 28.4 56.2 1019.3 8.0 SE 12.7 ESE 0.0 738.3
10:30 28.6 55.0 1019.3 9.5 ESE 18.0 ESE 0.0 755.2
10:35 28.5 54.5 1019.2 9.8 ESE 15.2 ESE 0.0 748.6
10:40 28.6 55.5 1019.3 8.9 S 17.6 SW 0.0 676.4
10:45 28.3 56.3 1019.2 5.9 SW 15.2 SW 0.0 171.2
10:50 27.9 57.1 1019.2 6.1 SW 10.9 SW 0.0 259.2
10:55 27.8 56.5 1019.2 5.3 WSW 12.7 SE 0.0 703.7
11:00 28.7 55.4 1019.2 8.8 SSE 17.3 SE 0.0 602.1
11:05 28.1 55.5 1019.1 6.8 S 13.4 SE 0.0 180.3
11:10 28.3 56.3 1019.1 6.9 SSW 15.9 W 0.0 449.1
11:15 28.5 55.7 1019.1 5.6 SSW 10.6 SW 0.0 508.2
11:20 28.3 56.3 1019.0 4.5 SE 8.8 SE 0.0 160.6
11:25 28.1 57.8 1019.1 4.9 ESE 10.6 SSW 0.0 507.1
11:30 28.9 54.4 1019.1 9.1 SSE 20.8 S 0.0 839.0
11:35 29.6 54.0 1019.0 9.6 SSE 22.9 SE 0.0 744.4
11:40 29.4 54.9 1019.0 14.4 SSE 23.3 SSE 0.0 798.3
11:45 29.1 56.2 1019.0 13.5 SE 21.2 SSE 0.0 790.8
11:50 29.1 55.8 1019.0 14.0 SSE 21.9 S 0.0 769.3
11:55 28.9 56.1 1019.0 12.0 SE 24.0 S 0.0 675.5
12:00 28.8 56.5 1019.0 11.9 SE 20.1 SE 0.0 823.0
12:05 29.1 55.8 1018.9 8.8 SE 21.5 S 0.0 808.0
12:10 29.6 55.1 1018.8 12.1 SSE 22.2 SSE 0.0 812.0
12:15 29.6 54.1 1018.7 12.8 SE 21.2 ESE 0.0 792.4
12:20 29.7 54.5 1018.7 11.2 SE 24.0 ESE 0.0 786.8
12:25 29.7 54.8 1018.7 12.6 SSE 21.2 SE 0.0 778.0
12:30 29.6 55.2 1018.7 13.6 SE 25.4 S 0.0 773.1
12:35 29.5 55.5 1018.7 13.5 SSE 23.6 S 0.0 766.1
12:40 29.5 55.2 1018.7 10.5 SE 19.8 SSE 0.0 761.0
12:45 29.8 54.5 1018.7 12.3 SSE 18.7 S 0.0 755.9
12:50 29.8 54.8 1018.6 11.7 SSE 20.5 SE 0.0 745.9
12:55 30.1 55.5 1018.5 13.1 SE 24.0 ESE 0.0 740.8
13:00 29.9 57.6 1018.5 14.0 SSE 26.5 S 0.0 696.3
13:05 29.5 59.2 1018.5 16.1 SE 25.8 ESE 0.0 730.5
13:10 29.3 61.1 1018.5 13.9 SE 21.9 SSE 0.0 708.5
13:15 28.9 61.8 1018.4 12.8 SSE 24.3 SSE 0.0 481.9
13:20 29.1 61.8 1018.4 10.9 SE 18.4 SE 0.0 721.2
13:25 29.3 61.0 1018.4 12.4 SSE 25.1 SSE 0.0 725.3
13:30 29.2 61.4 1018.4 17.1 SE 26.5 SE 0.0 714.7
13:35 28.8 63.0 1018.4 14.2 SSE 24.3 SSE 0.0 712.6
13:40 28.8 63.2 1018.4 14.0 SSE 27.9 S 0.0 723.3
13:45 29.1 62.3 1018.5 14.1 SE 25.4 SE 0.0 742.5
13:50 28.9 62.8 1018.5 18.4 SE 28.6 SE 0.0 661.2
13:55 28.4 63.9 1018.5 16.7 SSE 28.6 SE 0.0 782.9
14:00 28.5 63.8 1018.5 13.4 SSE 25.8 ESE 0.0 629.8
14:05 28.8 63.5 1018.5 13.7 SE 24.3 ESE 0.0 452.3
14:10 28.5 64.0 1018.5 9.5 SSE 26.1 SE 0.0 266.8
14:15 28.6 63.2 1018.5 10.9 SSE 19.1 SE 0.0 636.3
14:20 28.8 62.2 1018.5 12.0 SSE 24.0 SSW 0.0 528.5
14:25 28.6 62.6 1018.5 11.4 SSE 24.0 SE 0.0 447.9
14:30 28.5 62.9 1018.4 14.7 SSE 23.6 SE 0.0 498.5
14:35 28.4 63.1 1018.5 9.8 S 20.1 SSW 0.0 309.1
14:40 28.1 63.7 1018.4 10.1 SSE 18.4 SSE 0.0 223.8
14:45 28.0 64.2 1018.5 9.4 SSE 21.9 SE 0.0 255.1
14:50 27.9 64.3 1018.5 9.9 SSE 20.5 SSE 0.0 217.6
14:55 27.7 65.2 1018.6 10.7 SSE 20.1 S 0.0 244.7
15:00 27.5 66.2 1018.6 10.2 S 18.0 S 0.0 183.4
15:05 27.3 67.2 1018.6 8.7 SSE 17.6 SSW 0.0 158.7
15:10 27.1 67.8 1018.6 8.7 S 18.0 SSE 0.0 156.7
15:15 27.0 67.5 1018.7 8.1 SSE 13.1 S 0.0 150.3
15:20 27.0 67.3 1018.6 9.1 SSE 16.6 SE 0.0 117.3
15:25 26.8 67.0 1018.7 11.6 S 19.1 SE 0.0 97.0
15:30 26.7 66.9 1018.7 9.9 S 16.6 S 0.0 103.1
15:35 26.7 66.9 1018.7 7.0 SSW 17.3 W 0.0 112.0
15:40 26.7 66.4 1018.7 10.0 SSW 25.1 SSE 0.0 118.3
15:45 26.6 66.2 1018.7 7.8 S 14.8 SSW 0.0 136.0
15:50 26.6 65.7 1018.7 7.2 SSE 13.1 SSW 0.0 138.3
15:55 26.6 65.0 1018.8 7.7 S 13.1 SSE 0.0 109.0
16:00 26.5 65.0 1018.7 6.9 S 12.7 SE 0.0 88.8
16:05 26.4 64.8 1018.6 9.1 SSE 20.5 SE 0.0 96.5
16:10 26.4 64.9 1018.6 7.1 SSE 14.1 SSE 0.0 85.0
16:15 26.5 64.7 1018.6 5.2 S 12.7 SSE 0.0 72.8
16:20 26.4 63.0 1018.7 6.8 SSE 14.1 S 0.0 63.9
16:25 26.4 62.6 1018.7 7.4 S 13.4 SSE 0.0 57.6
16:30 26.2 62.6 1018.7 8.4 S 15.2 SSW 0.0 58.7
16:35 26.2 62.1 1018.7 5.7 S 10.6 WSW 0.0 72.1
16:40 26.3 61.6 1018.7 5.7 SSE 10.9 SE 0.0 83.3
16:45 26.4 61.3 1018.7 4.9 SSE 9.9 S 0.0 53.5
16:50 26.2 61.0 1018.6 8.4 S 17.6 SSE 0.0 51.9
16:55 26.0 62.1 1018.6 8.6 SSE 14.5 SE 0.0 54.0
17:00 25.8 62.9 1018.6 7.6 SE 11.3 SSE 0.0 57.9
17:05 25.7 63.4 1018.6 9.1 SE 16.2 SSE 0.0 51.7
17:10 25.5 63.9 1018.7 8.4 SE 16.6 SSE 0.0 54.6
17:15 25.5 64.4 1018.6 7.3 SSE 12.0 SE 0.0 61.4
17:20 25.5 64.8 1018.6 7.4 SSE 12.4 SSE 0.0 55.7
17:25 25.3 65.7 1018.5 7.4 SE 13.1 SSE 0.0 54.0
17:30 25.2 66.3 1018.6 5.7 SE 9.9 ESE 0.0 50.0
17:35 25.1 66.6 1018.5 6.6 SE 10.9 SSE 0.0 40.8
17:40 25.0 66.7 1018.5 6.1 SE 9.9 SE 0.0 33.0
17:45 25.0 67.3 1018.5 5.4 SE 10.2 SE 0.0 29.7
17:50 24.9 67.5 1018.6 5.7 SE 11.3 SE 0.0 27.7
17:55 24.9 68.5 1018.6 5.9 SE 10.2 SE 0.0 16.9
18:00 24.9 71.9 1018.6 5.3 SE 8.5 SSE 0.0 10.0
18:05 24.7 73.3 1018.7 5.3 SE 8.5 SE 0.0 8.0
18:10 24.6 73.7 1018.7 4.0 SE 6.0 SE 0.0 5.4
18:15 24.5 73.4 1018.7 3.7 SSE 6.4 SSE 0.0 3.8
18:20 24.5 74.0 1018.8 4.5 SE 6.4 SE 0.0 2.8
18:25 24.4 75.0 1018.8 5.7 SE 8.8 SE 0.0 1.8
18:30 24.3 75.8 1018.8 4.3 SE 7.8 SE 0.0 0.9
18:35 24.2 76.6 1018.8 3.2 SSE 6.4 SSE 0.0 0.4
18:40 24.1 77.3 1018.9 4.9 SSE 10.2 SE 0.0 0.2
18:45 24.0 78.5 1018.9 5.8 SSE 10.6 SE 0.0 0.1
Máxima 30.1 78.5 1019.6 18.4 SE 28.6 SE 0.0 839.0
Mínima 17.4 52.4 1016.7
Total 0.0